www.pogodaiklimat.ru

Погода и климат >> Архив погоды >> Индия >> Churu


ПОГОДА в Churu

  • Прогноз погоды в Churu
  • Монитор погоды в Churu
  • Климат города

АРХИВ ПОГОДЫ в Churu

Время (UTC), дата Ветер
(напр.,м/с)
 
Видим.   Явления Облачность Т
(С)
Тd
(С)
f
(%)
Тe
(С)
Тes
(С)
Комфортность P
(гПа)
Po
(гПа)
Тmin
(С)
Tmax
(С)
R
(мм)
R24
(мм)
S
(см)
21 12.08 ЮЗ 1 4000 м 4/3 1200 м
[Sc Ci fib]
+27.0 +23.8 83 +37 +37 очень
душно
999.8 1000.0
00 13.08 ЮЗ 1 4000 м 6/3 1200 м
[Sc Ci fib]
+26.6 +24.0 86 +37 +37 очень
душно
999.8 1000.0
03 13.08 ЮЗ 1 4000 м 4/4 1200 м
[Sc]
+29.0 +23.2 71 +39 +44 очень
душно
1001.1 1001.0 +25.6 +35.5
06 13.08 Ю 2 4000 м 4/4 1050 м
[Sc]
+34.2 +22.3 50 +43 +55 опасность
перегрева
1001.0 1001.0
09 13.08 ЮВ 2 4000 м 5/5 1200 м
[Sc]
+35.8 +22.2 45 +44 +53 опасность
перегрева
999.9 1000.0
12 13.08 ЮЗ 2 4000 м 4/4 1200 м
[Sc]
+33.6 +21.5 49 +41 +43 опасность
перегрева
999.3 999.0 +36.5
15 13.08 ЮЗ 2 4000 м 10/6 1200 м
[Sc Ci fib]
+30.4 +21.5 59 +38 +38 очень
душно
1000.6 1001.0
18 13.08 ЮЗ 1 4000 м 10/6 1200 м
[Sc Ci fib]
+29.0 +22.2 67 +38 +38 очень
душно
1003.4 1003.0
21 13.08 ЮЗ 1 4000 м 10/6 1020 м
[Sc Ci fib]
+27.6 +22.3 73 +36 +36 очень
душно
1003.2 1003.0
00 14.08 ЮЗ 1 4000 м 6/6 1200 м
[Sc]
+29.0 +23.2 71 +39 +39 очень
душно
1003.3 1003.0
03 14.08 ЮЗ 2 4000 м 8/8 1050 м
[Cu Sc]
+28.6 +23.4 73 +39 +40 очень
душно
1004.6 1005.0 +25.6 +36.5
06 14.08 ЮЗ 2 4000 м 8/8 1050 м
[Cu Sc]
+32.2 +21.9 55 +41 +45 опасность
перегрева
1004.9 1005.0
12 14.08 ЮЗ 2 4000 м 5/3 1200 м
[Sc Ci fib]
+35.0 +21.9 47 +44 +45 опасность
перегрева
1001.5 1002.0 +36.0
15 14.08 Ю 1 4000 м 1/0 900 м
[Ac trans]
+31.4 +22.2 58 +40 +40 очень
душно
1003.0 1003.0
18 14.08 Ю 2 4000 м 4/4 1050 м
[Sc]
+29.0 +22.2 67 +38 +38 очень
душно
1004.4 1004.0
21 14.08 Ю 1 4000 м 9/9 1050 м
[Sc]
+28.4 +22.5 70 +37 +37 очень
душно
1003.8 1004.0
00 15.08 Ю 2 4000 м 9/5 1050 м
[Sc]
+28.0 +22.7 73 +37 +37 очень
душно
1004.0 1004.0
03 15.08 ЮЗ 2 4000 м 5/5 1050 м
[Sc]
+30.0 +23.3 67 +40 +44 очень
душно
1004.7 1005.0 +26.8 +36.0
06 15.08 ЮЗ 1 4000 м 9/6 1050 м
[Sc Ac trans]
+36.0 +23.8 50 +47 +52 опасность
перегрева
1003.8 1004.0
09 15.08 ЮЗ 1 4000 м в посл. час гроза {дождь} 9/6 1050 м
[Sc As op]
+35.0 +25.2 57 +49 +52 опасность
перегрева
1001.9 1002.0 0.4
12 15.08 штиль 0 4000 м 9/8 900 м
[Sc As op]
+33.0 +27.5 73 +52 +53 опасность
перегрева
1000.6 1001.0 +37.2 3
15 15.08 штиль 0 4000 м 8/8 1050 м
[Sc]
+29.0 +24.7 78 +41 +41 опасность
перегрева
1002.2 1002.0 3
18 15.08 штиль 0 4000 м 9/9 900 м
[Sc]
+27.6 +24.4 83 +39 +39 очень
душно
1002.5 1003.0 3
21 15.08 ЮЗ 1 4000 м 9/9 900 м
[Sc]
+26.6 +24.3 87 +37 +37 очень
душно
1002.1 1002.0 3
00 16.08 ЮЗ 1 4000 м 8/8 1200 м
[Sc]
+26.0 +23.7 87 +35 +35 очень
душно
1002.0 1002.0 3
03 16.08 ЮЗ 1 4000 м 6/6 1200 м
[Sc]
+24.0 +24.7 100 +33 +36 очень
душно
1002.7 1003.0 +25.0 +37.2 3
06 16.08 З 1 4000 м 4/4 1200 м
[Sc]
+34.6 +24.4 56 +47 +61 опасность
перегрева
1002.7 1003.0
09 16.08 СЗ 1 4000 м 5/5 1200 м
[Sc]
+38.2 +22.7 41 +47 +57 опасность
перегрева
999.5 1000.0
12 16.08 З 2 4000 м 5/5 1200 м
[Sc]
+37.6 +21.2 39 +45 +46 опасность
перегрева
997.5 998.0 +39.5
15 16.08 Ю 1 4000 м 3/3 1050 м
[Sc]
+33.0 +23.5 58 +44 +44 опасность
перегрева
998.8 999.0
18 16.08 ЮЗ 2 4000 м 3/3 1200 м
[Sc]
+31.4 +22.0 57 +40 +40 очень
душно
998.9 999.0
21 16.08 Ю 1 4000 м 5/0
[Ci fib]
+29.0 +22.2 67 +38 +38 очень
душно
998.8 999.0
00 17.08 Ю 1 4000 м 5/0
[Ci fib]
+27.4 +22.4 74 +36 +36 очень
душно
999.7 1000.0
03 17.08 Ю 2 4000 м 5/0
[Ci fib]
+29.4 +23.0 68 +39 +45 очень
душно
1001.6 1002.0 +26.7 +39.5
06 17.08 ЮЗ 2 4000 м 4/0
[Ci fib]
+35.4 +23.0 49 +45 +65 опасность
перегрева
1000.6 1001.0
09 17.08 З 1 4000 м ясно +38.4 +21.9 39 +46 +65 опасность
перегрева
998.4 998.0
12 17.08 ЮЗ 1 4000 м 3/0
[Ci fib]
+37.2 +20.3 37 +43 +46 опасность
перегрева
997.5 998.0 +39.5
15 17.08 ЮЗ 1 4000 м 4/4 1200 м
[Sc]
+33.0 +22.5 54 +42 +42 опасность
перегрева
998.5 999.0
18 17.08 ЮЗ 2 4000 м 4/4 1200 м
[Sc]
+30.4 +22.5 63 +40 +40 очень
душно
999.9 1000.0
21 17.08 ЮЗ 1 4000 м 5/5 1200 м
[Sc]
+28.6 +22.7 70 +38 +38 очень
душно
999.8 1000.0
00 18.08 ЮЗ 1 4000 м 3/3 1200 м
[Sc]
+26.0 +21.5 76 +33 +33 очень
душно
1000.6 1001.0
03 18.08 З 2 4000 м ясно +29.4 +23.3 70 +40 +46 очень
душно
1002.2 1002.0 +24.7 +39.5
06 18.08 З 2 4000 м ясно +35.2 +22.8 49 +45 +66 опасность
перегрева
991.5 992.0
09 18.08 СЗ 1 4000 м 3/3 1200 м
[Sc]
+39.8 +20.0 32 +45 +58 опасность
перегрева
999.1 999.0
12 18.08 штиль 0 4000 м 4/4 1200 м
[Sc]
+39.4 +18.7 30 +43 +45 опасность
перегрева
997.3 997.0 +40.3
15 18.08 ЮЗ 1 4000 м 4/0
[Ci fib]
+34.4 +19.3 41 +40 +40 очень
душно
999.5 1000.0
18 18.08 штиль 0 4000 м 4/0
[Ci fib]
+32.0 +23.3 60 +43 +43 опасность
перегрева
1000.6 1001.0
21 18.08 штиль 0 4000 м 4/0
[Ci fib]
+30.0 +22.7 65 +40 +40 очень
душно
1000.7 1001.0
00 19.08 штиль 0 4000 м 4/0
[Ci fib]
+28.4 +22.5 70 +37 +37 очень
душно
1001.2 1001.0
03 19.08 штиль 0 4000 м 4/4 1200 м
[Sc]
+31.0 +22.9 62 +41 +46 опасность
перегрева
1001.2 1001.0 +26.6 +40.3
06 19.08 штиль 0 4000 м 5/0
[Ci fib]
+36.4 +22.9 46 +46 +69 опасность
перегрева
1002.4 1002.0
09 19.08 штиль 0 4000 м 8/4 1200 м
[Sc Ci fib]
+39.0 +21.6 37 +46 +58 опасность
перегрева
1000.4 1000.0
12 19.08 СВ 2 4000 м 8/4 1200 м
[Sc Ci fib]
+33.6 +23.2 55 +44 +46 опасность
перегрева
1000.0 1000.0 +39.5
15 19.08 СВ 2 4000 м 8/4 1200 м
[Sc Ac trans]
+31.0 +22.9 62 +41 +41 опасность
перегрева
1001.8 1002.0

 

Местоположение метеостанции Churu (Rajasthan, Индия): широта 28.25 долгота 74.92 высота над уровнем моря 291 м.

В архиве по умолчанию представлена погода в Churu за последнюю неделю. Архивные данные за месяц целиком и за предыдущие месяцы, начиная с января 2011 года, Вы можете получить, выбрав интересующий диапазон дат из раскрывающегося списка и нажав кнопку "Ввод!".

Внимание! Время в таблицах - всемирное. Для получения местного времени необходимо прибавить поправку, которая в Churu равна 5.5 ч.

Смотрите также архив погоды в соседних городах и на ближайших метеорологических станциях:

Погода в Pilani (Rajasthan, Индия) (65 км)
Погода в Hissar (Haryana, Индия) (129 км)
Погода в Bikaner (Rajasthan, Индия) (161 км)
Погода в Jaipur (Rajasthan, Индия) (181 км)
Погода в Ajmer (Rajasthan, Индия) (202 км)
Погода в Sri Ganganagar (Rajasthan, Индия) (212 км)
Погода в New Delhi Aya Nagar (Delhi, Индия) (218 км)
Погода в New Delhi Airport (Delhi, Индия) (218 км)
Погода в New Delhi (Delhi, Индия) (226 км)
Погода в Ridge (Delhi, Индия) (235 км)

Пояснения к столбцам:

Ветер - указаны скорость ветра в м/с - средняя за 10 мин, порывы в срок и между сроками (в фигурных скобках) и направление, откуда дует ветер: С - северный, СВ - северо-восточный, В - восточный, ЮВ - юго-восточный, Ю - южный, ЮЗ - юго-западный, З - западный, СЗ - северо-западный.
Видимость - горизонтальная дальность видимости в метрах или километрах. При видимости от 1 до 10 км при отсутствии осадков обычно наблюдается дымка, при ухудшении видимости до 1 км и менее - туман. В сухую погоду видимость может ухудшаться дымом, пылью или мглою.
Явления - указаны атмосферные явления, наблюдавшиеся в срок или в последний час перед сроком; фигурными скобками обозначены явления, наблюдавшиеся между сроками (за 1-3 часа до срока); квадратными скобками обозначены град или гололедные отложения с указанием их диаметра в мм.
Облачность - указаны через наклонную черту общая и нижняя облачность в баллах и высота нижней границы облаков в метрах; квадратными скобками обозначены формы облаков: Ci - перистые, Cs - перисто-слоистые, Cc - перисто-кучевые, Ac - высококучевые, As - высокослоистые, Sc - слоисто-кучевые, Ns - слоисто-дождевые, Cu - кучевые, Cb - кучево-дождевые. Подробнее классификацию облаков см. в Атласе облаков (PDF).
T - Температура воздуха - температура, измеренная на высоте 2 м над землей.
Td - Температура точки росы - температура, при понижении до которой содержащийся в воздухе водяной пар достигнет насыщения.
f - Относительная влажность воздуха - влажноcть воздуха, измеренная на высоте 2 м над землей.
Te - Эффективная температура - температура, которую ощущает одетый по сезону человек в тени. Характеристика душности погоды. При расчете учитывается влияние влажности воздуха и скорости ветра на теплоощущения человека.
Tes - Эффективная температура на солнце - температура, которую ощущает человек, с поправкой на солнечный нагрев. Характеристика знойности погоды. Зависит от высоты солнца над горизонтом, облачности и скорости ветра. Ночью, в пасмурную погоду, а также при ветре 12 м/с и более поправка равна нулю.
P - Атмосферное давление - приведенное к уровню моря атмосферное давление.
Po - Атмосферное давление - измеренное на уровне метеостанции атмосферное давление.
Tmin - Минимальная температура - минимум температуры воздуха на высоте 2 м над землей.
Tmax - Максимальная температура - максимум температуры воздуха на высоте 2 м над землей.
R - Количество осадков - Количество выпавших осадков за период времени, мм. При наведении курсора мыши на число - период времени, за который выпало указанное количество осадков.
R24 - Количество осадков - Количество выпавших осадков за 24 часа, мм.
S - Снежный покров - Высота снежного покрова, см. При наведении курсора мыши на число - состояние снежного покрова и степень покрытия местности в баллах.